TimeMDT,TemperatureF,Dew PointF,Humidity,Sea Level PressureIn,VisibilityMPH,Wind Direction,Wind SpeedMPH,Gust SpeedMPH,PrecipitationIn,Events,Conditions,WindDirDegrees,DateUTC
12:53 AM,24.1,5.0,44,30.34,10.0,WSW,3.5,-,N/A,,Clear,250,2013-05-03 06:53:00
2:53 AM,23.0,3.9,44,30.28,10.0,West,3.5,-,N/A,,Clear,280,2013-05-03 08:53:00
3:53 AM,24.1,3.0,40,30.25,10.0,West,9.2,-,N/A,,Clear,280,2013-05-03 09:53:00
4:53 AM,21.9,1.9,42,30.25,10.0,West,9.2,-,N/A,,Clear,280,2013-05-03 10:53:00
5:53 AM,19.0,3.0,50,30.24,10.0,West,5.8,-,N/A,,Clear,270,2013-05-03 11:53:00
6:53 AM,21.9,3.9,46,30.21,10.0,West,5.8,-,N/A,,Clear,260,2013-05-03 12:53:00
7:53 AM,30.9,5.0,33,30.19,10.0,West,4.6,-,N/A,,Clear,260,2013-05-03 13:53:00
8:53 AM,42.1,1.0,18,30.14,10.0,Calm,Calm,-,N/A,,Clear,0,2013-05-03 14:53:00
9:53 AM,48.9,-2.0,12,30.12,10.0,Variable,3.5,-,N/A,,Clear,0,2013-05-03 15:53:00
10:53 AM,52.0,-0.9,11,30.12,10.0,SSE,9.2,16.1,N/A,,Clear,150,2013-05-03 16:53:00
11:53 AM,54.0,-2.9,10,30.09,10.0,South,10.4,18.4,N/A,,Clear,180,2013-05-03 17:53:00
12:53 PM,57.9,-0.9,9,30.08,10.0,Variable,6.9,-,N/A,,Clear,0,2013-05-03 18:53:00
1:53 PM,59.0,1.9,10,30.05,10.0,SSE,13.8,18.4,N/A,,Clear,160,2013-05-03 19:53:00
2:53 PM,60.1,1.0,9,30.01,10.0,ESE,9.2,17.3,N/A,,Clear,120,2013-05-03 20:53:00
3:53 PM,62.1,1.0,9,29.95,10.0,SE,15.0,20.7,N/A,,Clear,130,2013-05-03 21:53:00
4:53 PM,61.0,1.0,9,29.93,10.0,SSE,15.0,21.9,N/A,,Clear,160,2013-05-03 22:53:00
5:53 PM,62.1,1.9,9,29.93,10.0,SE,12.7,-,N/A,,Clear,140,2013-05-03 23:53:00
6:53 PM,60.1,1.9,10,29.91,10.0,SSE,10.4,-,N/A,,Clear,160,2013-05-04 00:53:00
7:53 PM,55.9,3.9,12,29.88,10.0,SSE,11.5,-,N/A,,Clear,160,2013-05-04 01:53:00
8:53 PM,43.0,6.1,22,29.90,10.0,SSE,9.2,-,N/A,,Clear,150,2013-05-04 02:53:00
9:53 PM,37.9,6.1,27,29.90,10.0,Calm,Calm,-,N/A,,Clear,0,2013-05-04 03:53:00
10:53 PM,34.0,9.0,35,29.91,10.0,West,6.9,-,N/A,,Clear,260,2013-05-04 04:53:00
11:53 PM,28.0,10.0,47,29.91,10.0,West,5.8,-,N/A,,Clear,260,2013-05-04 05:53:00